Regional Weather Roundup
Issued by NWS

Home | Current Version | Previous Version | Text Only | Print | Product List | Glossary Off
Versions: 1 2 3 4 5 6 7 8 9 10 11 12 13 14 15 16 17 18 19 20 21 22 23 24 25 26 27

000
ASUS45 KCYS 211810
RWRWY

WYOMING REGIONAL WEATHER ROUNDUP
NATIONAL WEATHER SERVICE CHEYENNE WY
1200 PM MDT THU SEP 21 2017

NOTE:  "FAIR" INDICATES FEW OR NO CLOUDS BELOW 12,000 FEET
WITH NO SIGNIFICANT WEATHER AND/OR OBSTRUCTIONS TO VISIBILITY.

WYZ001-211900-
YELLOWSTONE NATIONAL PARK

CITY           SKY/WX    TMP DP  RH WIND       PRES   REMARKS
LK YELLOWSTONE NOT AVBL
W YELLOWSTONE  NOT AVBL

$$
WYZ002>013-054>058-071-098>099-211900-
NORTHERN WYOMING

CITY           SKY/WX    TMP DP  RH WIND       PRES   REMARKS
JACKSON        CLOUDY    37  35  92 CALM      29.82S
CODY           LGT RAIN  42  39  89 N10       29.82R
GREYBULL       PTSUNNY   55  45  68 NW14      29.75S
6HR MIN TEMP:  49; 6HR MAX TEMP:  55;

WORLAND        CLOUDY    56  43  61 N8        29.74S
6HR MIN TEMP:  45; 6HR MAX TEMP:  56;

SHERIDAN       CLOUDY    53  42  66 NW9       29.80S
6HR MIN TEMP:  48; 6HR MAX TEMP:  55;

BUFFALO        PTSUNNY   54  39  57 N13       29.81S
6HR MIN TEMP:  45; 6HR MAX TEMP:  57;

GILLETTE       FAIR      59  40  49 N10G17    29.77R
6HR MIN TEMP:  40; 6HR MAX TEMP:  60;

HULETT         FAIR      61  37  41 N7        29.77S
NEWCASTLE      FAIR      70  32  24 W5        29.74R

$$
WYZ014>020-022>026-101>103-211900-
CENTRAL WYOMING

CITY           SKY/WX    TMP DP  RH WIND       PRES   REMARKS
BIG PINEY      FAIR      56  38  50 S16       29.78F
6HR MIN TEMP:  32; 6HR MAX TEMP:  57;

PINEDALE       CLOUDY    52  37  58 SE8       29.80S
DUBOIS         LGT RAIN  37  36  93 NW7       29.79S WCI  32
LANDER           N/A    N/A N/A N/A MISG      29.71F
RIVERTON       FAIR      58  38  47 NE7       29.72F
6HR MIN TEMP:  38; 6HR MAX TEMP:  58;

CASPER         FAIR      62  35  36 N3        29.76F
6HR MIN TEMP:  38; 6HR MAX TEMP:  62;

DOUGLAS        FAIR      76  32  20 NW10      29.73F
6HR MIN TEMP:  47; 6HR MAX TEMP:  76;


$$
WYZ021-027>030-104>119-211900-
SOUTHERN WYOMING

CITY           SKY/WX    TMP DP  RH WIND       PRES   REMARKS
EVANSTON       FAIR      57  39  51 W13G20    29.77F
6HR MIN TEMP:  40; 6HR MAX TEMP:  58;

KEMMERER         N/A     52  37  58 W9        29.80S
FORT BRIDGER   FAIR      58  40  51 N5        29.80S
ROCK SPRINGS   FAIR      66  29  24 S33G46    29.75S
6HR MIN TEMP:  46; 6HR MAX TEMP:  66;

DIXON          FAIR      72  26  18 SW26G33   29.84F
RAWLINS        FAIR      69  29  22 SW29G41   29.80F
6HR MIN TEMP:  54; 6HR MAX TEMP:  69;

SARATOGA       FAIR      72  25  17 SW18G33   29.85S
LARAMIE        FAIR      74  15  10 SW31G41   29.86F
6HR MIN TEMP:  49; 6HR MAX TEMP:  74;

CHEYENNE       FAIR      80  18  10 S15G25    29.81F
6HR MIN TEMP:  41; 6HR MAX TEMP:  80;

TORRINGTON     FAIR      74  38  27 VRB5      29.70F
6HR MIN TEMP:  45; 6HR MAX TEMP:  74;

PINE BLUFFS    FAIR      79  28  15 S10       29.77F

$$




USA.gov is the U.S. government's official web portal to all federal, state and local government web resources and services.